MDI01 EGNS-EGNH

Flight info

Callsign MDI01
Flight time 0h 30m
Altitude 3500
Route VFR
Aircraft DA62/L-S/C

Departure

Time 2026-04-20 15:54
Airport Isle of Man Airport (EGNS)

Arrival

Time 2026-04-20 16:24
Airport Blackpool Airport (EGNH)
Time Latitude Longitude Altitude Speed Heading
2026-04-20 15:41 54.08375 -4.63620 37 ft 0 kts 313°
2026-04-20 15:51 54.08374 -4.63626 37 ft 1 kts 188°
2026-04-20 15:51 54.08364 -4.63585 37 ft 4 kts 139°
2026-04-20 15:51 54.08334 -4.63610 38 ft 8 kts 244°
2026-04-20 15:51 54.08293 -4.63740 39 ft 16 kts 242°
2026-04-20 15:52 54.08233 -4.63898 42 ft 11 kts 204°
2026-04-20 15:52 54.08193 -4.63897 41 ft 0 kts 161°
2026-04-20 15:53 54.08149 -4.63838 40 ft 9 kts 90°
2026-04-20 15:53 54.08156 -4.63775 40 ft 0 kts 78°
2026-04-20 15:54 54.08172 -4.63632 38 ft 43 kts 78°
2026-04-20 15:54 54.08279 -4.62826 71 ft 88 kts 78°
2026-04-20 15:54 54.08414 -4.61743 323 ft 94 kts 79°
2026-04-20 15:54 54.08530 -4.60698 779 ft 91 kts 78°
2026-04-20 15:55 54.08648 -4.59696 1295 ft 83 kts 79°
2026-04-20 15:55 54.08761 -4.58741 1725 ft 82 kts 79°
2026-04-20 15:55 54.08871 -4.57796 2133 ft 81 kts 79°
2026-04-20 15:55 54.08978 -4.56850 2540 ft 81 kts 79°
2026-04-20 15:56 54.09090 -4.55900 2950 ft 82 kts 79°
2026-04-20 15:56 54.09204 -4.54950 3349 ft 83 kts 85°
2026-04-20 15:56 54.08877 -4.54239 3698 ft 86 kts 156°
2026-04-20 15:56 54.08342 -4.53793 4090 ft 86 kts 152°
2026-04-20 15:57 54.07771 -4.53325 4335 ft 106 kts 152°
2026-04-20 15:57 54.07039 -4.52715 4335 ft 124 kts 151°
2026-04-20 15:57 54.06238 -4.52022 4336 ft 135 kts 151°
2026-04-20 15:57 54.05368 -4.51262 4334 ft 145 kts 151°
2026-04-20 15:58 54.04452 -4.50467 4334 ft 151 kts 151°
2026-04-20 15:58 54.03508 -4.49642 4335 ft 154 kts 151°
2026-04-20 15:58 54.02549 -4.48798 4335 ft 156 kts 151°
2026-04-20 15:58 54.01583 -4.47945 4335 ft 157 kts 151°
2026-04-20 15:59 54.00626 -4.47103 4335 ft 157 kts 151°
2026-04-20 15:59 53.99653 -4.46247 4333 ft 158 kts 151°
2026-04-20 15:59 53.98678 -4.45393 4333 ft 157 kts 151°
2026-04-20 15:59 53.97716 -4.44552 4331 ft 155 kts 151°
2026-04-20 16:00 53.96766 -4.43727 4327 ft 153 kts 151°
2026-04-20 16:00 53.95822 -4.42914 4328 ft 152 kts 151°
2026-04-20 16:00 53.94881 -4.42102 4327 ft 152 kts 151°
2026-04-20 16:00 53.93942 -4.41284 4327 ft 152 kts 151°
2026-04-20 16:01 53.93005 -4.40463 4331 ft 152 kts 151°
2026-04-20 16:01 53.92067 -4.39642 4320 ft 152 kts 151°
2026-04-20 16:01 53.91103 -4.38803 4191 ft 159 kts 151°
2026-04-20 16:01 53.90250 -4.37642 4054 ft 161 kts 121°
2026-04-20 16:02 53.89966 -4.35814 3926 ft 162 kts 99°
2026-04-20 16:02 53.89819 -4.33913 3797 ft 162 kts 98°
2026-04-20 16:02 53.89675 -4.32030 3669 ft 160 kts 98°
2026-04-20 16:02 53.89530 -4.30159 3540 ft 159 kts 98°
2026-04-20 16:03 53.89389 -4.28324 3493 ft 153 kts 98°
2026-04-20 16:03 53.89252 -4.26567 3491 ft 148 kts 98°
2026-04-20 16:03 53.89139 -4.25083 3488 ft 144 kts 98°
2026-04-20 16:03 53.89009 -4.23419 3485 ft 141 kts 98°
2026-04-20 16:04 53.88879 -4.21786 3490 ft 139 kts 98°
2026-04-20 16:04 53.88749 -4.20171 3485 ft 138 kts 98°
2026-04-20 16:04 53.88621 -4.18574 3487 ft 136 kts 99°
2026-04-20 16:04 53.88511 -4.16974 3487 ft 136 kts 98°
2026-04-20 16:05 53.88408 -4.15390 3487 ft 134 kts 99°
2026-04-20 16:05 53.88308 -4.13814 3487 ft 135 kts 98°
2026-04-20 16:05 53.88205 -4.12237 3492 ft 134 kts 98°
2026-04-20 16:05 53.88098 -4.10660 3488 ft 139 kts 98°
2026-04-20 16:06 53.87989 -4.08997 3488 ft 141 kts 98°
2026-04-20 16:06 53.87882 -4.07351 3486 ft 143 kts 98°
2026-04-20 16:06 53.87779 -4.05669 3485 ft 144 kts 98°
2026-04-20 16:06 53.87668 -4.03979 3482 ft 145 kts 98°
2026-04-20 16:07 53.87557 -4.02282 3490 ft 145 kts 98°
2026-04-20 16:07 53.87444 -4.00577 3486 ft 145 kts 98°
2026-04-20 16:07 53.87332 -3.98880 3488 ft 145 kts 98°
2026-04-20 16:07 53.87225 -3.97178 3495 ft 145 kts 98°
2026-04-20 16:08 53.87123 -3.95491 3490 ft 144 kts 98°
2026-04-20 16:08 53.87017 -3.93803 3490 ft 144 kts 98°
2026-04-20 16:08 53.86903 -3.92111 3490 ft 145 kts 98°
2026-04-20 16:08 53.86780 -3.90414 3493 ft 145 kts 98°
2026-04-20 16:09 53.86661 -3.88723 3483 ft 144 kts 98°
2026-04-20 16:09 53.86550 -3.87040 3489 ft 144 kts 97°
2026-04-20 16:09 53.86437 -3.85353 3484 ft 144 kts 98°
2026-04-20 16:09 53.86320 -3.83665 3484 ft 144 kts 98°
2026-04-20 16:10 53.86201 -3.81972 3489 ft 145 kts 98°
2026-04-20 16:10 53.86079 -3.80277 3491 ft 145 kts 98°
2026-04-20 16:10 53.85959 -3.78581 3491 ft 145 kts 98°
2026-04-20 16:10 53.85846 -3.76883 3491 ft 145 kts 98°
2026-04-20 16:11 53.85731 -3.75187 3490 ft 145 kts 98°
2026-04-20 16:11 53.85613 -3.73490 3492 ft 145 kts 98°
2026-04-20 16:11 53.85494 -3.71814 3490 ft 145 kts 98°
2026-04-20 16:11 53.85376 -3.70115 3490 ft 145 kts 98°
2026-04-20 16:12 53.85261 -3.68393 3490 ft 145 kts 98°
2026-04-20 16:12 53.85155 -3.66719 3490 ft 144 kts 98°
2026-04-20 16:12 53.85046 -3.65027 3486 ft 145 kts 99°
2026-04-20 16:12 53.84949 -3.63318 3486 ft 146 kts 98°
2026-04-20 16:13 53.84842 -3.61595 3488 ft 148 kts 98°
2026-04-20 16:13 53.84737 -3.59868 3488 ft 148 kts 98°
2026-04-20 16:13 53.84634 -3.58132 3490 ft 148 kts 98°
2026-04-20 16:13 53.84536 -3.56400 3486 ft 148 kts 98°
2026-04-20 16:14 53.84433 -3.54675 3490 ft 146 kts 98°
2026-04-20 16:14 53.84332 -3.52962 3491 ft 147 kts 98°
2026-04-20 16:14 53.84222 -3.51238 3488 ft 147 kts 98°
2026-04-20 16:14 53.84118 -3.49521 3488 ft 147 kts 98°
2026-04-20 16:15 53.83846 -3.47877 3486 ft 145 kts 115°
2026-04-20 16:15 53.83453 -3.46313 3484 ft 144 kts 115°
2026-04-20 16:15 53.83074 -3.44733 3489 ft 145 kts 112°
2026-04-20 16:15 53.82734 -3.43112 3488 ft 147 kts 110°
2026-04-20 16:16 53.82410 -3.41474 3486 ft 147 kts 110°
2026-04-20 16:16 53.82091 -3.39835 3485 ft 146 kts 110°
2026-04-20 16:16 53.81774 -3.38200 3484 ft 146 kts 110°
2026-04-20 16:16 53.81458 -3.36575 3484 ft 145 kts 111°
2026-04-20 16:17 53.81143 -3.34957 3486 ft 145 kts 110°
2026-04-20 16:17 53.80828 -3.33335 3482 ft 145 kts 110°
2026-04-20 16:17 53.80510 -3.31706 3484 ft 146 kts 110°
2026-04-20 16:17 53.80221 -3.30222 3477 ft 117 kts 110°
2026-04-20 16:18 53.80004 -3.29095 3473 ft 88 kts 112°
2026-04-20 16:18 53.79826 -3.28187 3418 ft 80 kts 113°
2026-04-20 16:18 53.79644 -3.27277 3244 ft 85 kts 111°
2026-04-20 16:18 53.79456 -3.26261 3039 ft 94 kts 110°
2026-04-20 16:19 53.79271 -3.25203 2877 ft 93 kts 110°
2026-04-20 16:19 53.79052 -3.24193 2790 ft 92 kts 112°
2026-04-20 16:19 53.78834 -3.23178 2782 ft 92 kts 109°
2026-04-20 16:19 53.78639 -3.22142 2758 ft 93 kts 109°
2026-04-20 16:20 53.78442 -3.21119 2754 ft 92 kts 108°
2026-04-20 16:20 53.78260 -3.20097 2774 ft 83 kts 109°
2026-04-20 16:20 53.78063 -3.19129 3016 ft 98 kts 111°
2026-04-20 16:20 53.77868 -3.17903 3160 ft 116 kts 100°
2026-04-20 16:21 53.77806 -3.16585 3120 ft 101 kts 98°
2026-04-20 16:21 53.77767 -3.15493 2846 ft 90 kts 97°
2026-04-20 16:21 53.77715 -3.14451 2485 ft 88 kts 96°
2026-04-20 16:21 53.77659 -3.13427 2143 ft 86 kts 96°
2026-04-20 16:22 53.77595 -3.12432 1758 ft 85 kts 95°
2026-04-20 16:22 53.77518 -3.11459 1408 ft 83 kts 94°
2026-04-20 16:22 53.77454 -3.10493 1103 ft 82 kts 91°
2026-04-20 16:22 53.77424 -3.09536 820 ft 81 kts 86°
2026-04-20 16:23 53.77389 -3.08592 631 ft 79 kts 88°
2026-04-20 16:23 53.77375 -3.07980 528 ft 81 kts 87°
2026-04-20 16:23 53.77336 -3.06716 360 ft 79 kts 90°
2026-04-20 16:23 53.77298 -3.05794 241 ft 78 kts 90°
2026-04-20 16:24 53.77270 -3.05178 186 ft 79 kts 91°
2026-04-20 16:24 53.77212 -3.03954 59 ft 78 kts 92°
2026-04-20 16:24 53.77174 -3.03163 33 ft 55 kts 94°
2026-04-20 16:24 53.77196 -3.02965 32 ft 3 kts 337°
2026-04-20 16:25 53.77240 -3.02994 32 ft 14 kts 342°
2026-04-20 16:25 53.77301 -3.03025 32 ft 0 kts 341°
2026-04-20 16:26 53.77343 -3.03045 32 ft 12 kts 341°
2026-04-20 16:26 53.77439 -3.03096 33 ft 14 kts 343°
2026-04-20 16:26 53.77466 -3.03182 33 ft 13 kts 246°
2026-04-20 16:26 53.77418 -3.03378 33 ft 21 kts 248°
2026-04-20 16:27 53.77390 -3.03567 33 ft 8 kts 326°
2026-04-20 16:27 53.77463 -3.03562 33 ft 14 kts
2026-04-20 16:27 53.77574 -3.03544 33 ft 16 kts 348°
2026-04-20 16:27 53.77698 -3.03600 34 ft 20 kts 343°
2026-04-20 16:28 53.77804 -3.03681 34 ft 12 kts 298°
2026-04-20 16:28 53.77796 -3.03824 34 ft 15 kts 252°
2026-04-20 16:28 53.77765 -3.04004 34 ft 17 kts 250°
2026-04-20 16:28 53.77690 -3.04127 34 ft 13 kts 245°
2026-04-20 16:29 53.77683 -3.04265 34 ft 10 kts 274°
2026-04-20 16:29 53.77700 -3.04303 34 ft 0 kts 357°